ONEWEB-0022 (45135 NORAD) Tracking and Keplerian Element Data

This shows tracking and keplerian element data for the satellite.

Feedback or suggestion? Click here.




ElementValue
Catalog45135
NameONEWEB-0022
Epoch Orbit853
Epoch Day93.88679149
Epoch Year2020
RAAN145.4005
Inclination87.5367
Eccentricity0.0021275
Argument of Perigee103.702
Mean Anonmoly256.6579
Mean Motion14.9059925
Decay Rate-0.0030759
L11 45135U 20008E 20093.88679149 -.00307590 00000-0 -32725-1 0 9990
L22 45135 87.5367 145.4005 0021275 103.7020 256.6579 14.90599250 8535

Live tracking and technical data element details for ONEWEB-0022 (NORAD 45135). ONEWEB-0022 can be tracked NOW for your location showing map with azimuth and elevation plus other details from your city location.

Track the satellite on the map from your city or location and see movement details for azimuth, elevation, latitude, longitude, range, height, and movement on the map or in text.







IsCatalogInMostPopularTable: catalog: 45135, numindb: 11
Update: records affected: 1



GetName: 45135 ONEWEB-0022

Hit Count: updated at: Fri, 03 Apr 2020 22:11:48 GMT